Time,TemperatureF,DewpointF,PressureIn,WindDirection,WindDirectionDegrees,WindSpeedMPH,WindSpeedGustMPH,Humidity,HourlyPrecipIn,Conditions,Clouds,dailyrainin,SoftwareType,DateUTC
2015-09-05 00:00:00,74.1,64.1,29.81,SE,146,2.0,2.0,71,0.00,,,0.00,Wunderground v.1.15,2015-09-05 07:00:00,
2015-09-05 00:10:00,74.5,64.1,29.82,SE,146,2.0,4.0,70,0.00,,,0.01,Wunderground v.1.15,2015-09-05 07:10:00,
2015-09-05 00:20:00,74.8,64.4,29.82,South,169,3.0,3.0,70,0.00,,,0.01,Wunderground v.1.15,2015-09-05 07:20:00,
2015-09-05 00:30:00,74.7,64.3,29.82,SSE,160,3.0,3.0,70,0.00,,,0.01,Wunderground v.1.15,2015-09-05 07:30:00,
2015-09-05 00:40:00,74.7,64.3,29.81,SE,140,4.0,4.0,70,0.00,,,0.01,Wunderground v.1.15,2015-09-05 07:40:00,
2015-09-05 00:50:00,74.6,64.6,29.80,SSE,147,3.0,3.0,71,0.00,,,0.01,Wunderground v.1.15,2015-09-05 07:50:00,
2015-09-05 01:00:00,74.4,64.8,29.81,SSE,156,2.0,3.0,72,0.00,,,0.01,Wunderground v.1.15,2015-09-05 08:00:00,
2015-09-05 01:10:00,74.2,64.6,29.82,SSE,167,1.0,1.0,72,0.00,,,0.01,Wunderground v.1.15,2015-09-05 08:10:00,
2015-09-05 01:20:00,73.9,64.7,29.81,SSE,167,0.0,3.0,73,0.00,,,0.01,Wunderground v.1.15,2015-09-05 08:20:00,
2015-09-05 01:30:00,73.5,64.7,29.81,SSE,167,0.0,3.0,74,0.00,,,0.01,Wunderground v.1.15,2015-09-05 08:30:00,
2015-09-05 01:40:00,73.2,64.8,29.81,SSE,167,0.0,3.0,75,0.00,,,0.01,Wunderground v.1.15,2015-09-05 08:40:00,
2015-09-05 01:50:00,73.2,64.8,29.81,SSE,167,1.0,3.0,75,0.00,,,0.01,Wunderground v.1.15,2015-09-05 08:50:00,
2015-09-05 02:00:00,73.0,65.0,29.81,SSE,167,0.0,3.0,76,0.00,,,0.01,Wunderground v.1.15,2015-09-05 09:00:00,
2015-09-05 02:10:00,72.9,64.9,29.81,SSE,156,1.0,3.0,76,0.00,,,0.01,Wunderground v.1.15,2015-09-05 09:10:00,
2015-09-05 02:20:00,73.3,64.9,29.81,SE,136,3.0,3.0,75,0.00,,,0.01,Wunderground v.1.15,2015-09-05 09:20:00,
2015-09-05 02:30:00,73.4,65.0,29.81,SE,144,2.0,3.0,75,0.00,,,0.01,Wunderground v.1.15,2015-09-05 09:30:00,
2015-09-05 02:40:00,73.4,65.0,29.82,SE,141,1.0,3.0,75,0.00,,,0.01,Wunderground v.1.15,2015-09-05 09:40:00,
2015-09-05 02:50:00,73.2,65.2,29.81,SE,141,0.0,3.0,76,0.00,,,0.01,Wunderground v.1.15,2015-09-05 09:50:00,
2015-09-05 03:00:00,73.1,65.1,29.81,SE,130,2.0,4.0,76,0.00,,,0.01,Wunderground v.1.15,2015-09-05 10:00:00,
2015-09-05 03:10:00,73.3,65.3,29.82,SSE,161,2.0,4.0,76,0.00,,,0.01,Wunderground v.1.15,2015-09-05 10:10:00,
2015-09-05 03:20:00,73.3,65.7,29.81,SSE,155,1.0,1.0,77,0.00,,,0.01,Wunderground v.1.15,2015-09-05 10:20:00,
2015-09-05 03:30:00,73.3,65.7,29.82,SE,145,1.0,3.0,77,0.00,,,0.01,Wunderground v.1.15,2015-09-05 10:30:00,